GFSNE_sfc_rhum_297.txt.gz
RH
69 66 68 70 68 69 73 72 80 90 80 66 63 55 53 57 64 76 71 82 84 81 78 78 82 86 85 73 72 73 68 66 62 66 63 65 66 63
50 58 62 66 70 76 83 81 81 88 96 75 71 62 58 62 72 76 73 82 87 82 80 82 87 87 86 81 77 75 71 67 68 64 62 60 62 64
48 53 58 58 65 69 75 82 86 88 97 84 76 71 72 81 78 85 83 83 81 84 80 83 86 87 86 85 81 81 73 71 67 64 63 61 61 65
51 56 58 48 58 59 68 75 81 84 94 91 77 84 82 81 77 90 90 86 86 87 83 84 83 84 86 87 86 84 80 74 70 69 67 65 62 67
53 55 57 57 61 63 66 69 71 72 81 88 84 80 84 87 91 95 96 96 92 92 86 84 80 79 84 86 88 86 84 78 74 71 67 66 64 63
60 60 59 61 64 70 76 77 73 78 78 82 83 80 86 84 92 92 98 97 96 88 87 85 87 84 86 88 89 89 90 85 74 70 69 69 67 64
62 59 63 70 79 77 76 76 74 79 82 80 81 81 82 90 97 90 95 95 99 98 97 97 94 93 94 96 95 93 89 85 76 68 65 65 65 68
67 64 64 72 68 66 68 68 76 81 83 85 82 75 80 81 86 90 96 98 100 99 99 99 98 99 97 96 92 91 85 79 71 66 63 62 66 70
69 68 65 61 72 67 71 74 71 73 76 82 87 86 87 79 86 92 98 97 100 100 98 100 99 99 98 92 87 83 82 83 75 65 63 63 68 67
67 67 67 68 68 76 78 80 79 76 77 80 85 87 91 91 94 95 96 99 99 99 94 99 100 100 98 96 90 91 92 82 69 65 64 65 68 67
65 65 67 69 76 82 88 89 87 87 96 95 94 91 91 91 95 97 99 99 100 100 99 98 100 99 100 98 98 96 93 74 66 66 66 67 69 70
65 67 69 75 82 83 91 93 98 99 99 99 98 97 96 95 96 97 97 98 99 99 100 98 99 99 99 100 99 98 95 75 65 66 71 71 66 79
72 73 71 79 82 87 89 95 96 98 99 100 99 99 99 99 98 98 99 98 100 100 98 99 99 99 99 98 100 99 99 94 80 78 69 66 62 82
70 69 72 81 86 90 91 90 91 97 99 98 99 99 99 98 96 97 98 99 99 98 98 99 100 98 96 98 96 98 98 94 81 84 87 71 67 67
65 74 81 82 84 92 91 90 91 99 99 98 92 92 91 93 94 95 96 96 97 97 100 100 99 99 98 96 96 97 96 96 82 87 88 85 83 81
74 77 80 82 89 93 95 96 99 99 92 94 88 87 90 94 94 94 96 97 97 97 98 99 99 99 99 97 96 97 96 97 91 88 88 84 80 80
77 79 80 86 98 98 100 99 99 98 94 90 89 89 86 89 90 94 96 98 98 98 98 98 98 98 98 98 98 96 96 96 94 88 86 83 74 70
82 84 84 95 98 99 99 99 100 100 96 87 89 90 92 94 94 96 97 98 96 98 97 98 97 97 97 96 96 96 97 93 87 88 86 88 86 73
85 89 85 95 97 99 99 99 99 99 95 92 94 94 94 96 89 96 97 96 97 97 98 98 99 98 97 96 97 95 95 89 89 91 91 93 95 83
87 86 87 95 97 98 99 99 99 98 94 93 95 94 96 88 97 97 98 96 96 97 97 97 97 98 96 96 96 97 75 91 91 94 95 94 87 71
88 82 85 95 98 100 100 99 98 98 96 95 95 92 94 96 97 97 95 90 91 96 96 96 97 94 96 93 93 97 92 70 78 94 93 95 96 95
78 83 90 97 99 100 99 99 98 98 97 94 92 93 95 94 95 95 92 97 97 95 96 96 96 96 96 92 93 96 97 90 74 72 72 80 94 97
90 94 97 98 100 100 99 98 98 98 94 94 93 92 89 94 86 92 96 95 95 96 96 95 94 95 94 90 90 96 95 96 95 95 91 73 75 74

GFSNE_sfc_rhum_300.txt.gz
RH
76 84 86 84 85 90 92 95 95 87 77 62 67 62 73 70 68 78 75 81 85 82 80 82 82 82 81 78 81 72 74 71 66 68 66 65 62 57
60 66 72 78 81 90 93 94 96 95 96 70 63 62 66 69 70 73 76 86 85 86 87 87 87 86 84 82 86 77 77 72 68 68 65 61 61 62
64 67 70 70 76 74 82 91 91 94 94 79 73 68 73 77 73 73 80 78 83 89 88 88 86 86 89 89 87 79 80 72 71 68 65 62 62 62
68 72 74 58 74 75 81 83 86 88 93 93 80 79 81 81 84 87 79 79 87 83 90 88 88 90 90 89 88 82 80 82 76 70 67 64 65 65
72 75 75 76 81 84 86 82 83 78 85 87 86 78 77 80 83 85 87 91 86 88 88 92 90 89 86 87 88 86 82 89 83 79 72 68 66 66
77 79 78 80 82 80 79 79 69 74 78 83 80 83 82 75 82 86 83 88 89 85 93 95 94 92 90 85 84 90 94 90 84 80 77 72 73 70
79 74 76 80 81 79 65 70 73 77 79 80 82 80 79 81 80 74 81 84 83 94 98 99 99 99 97 93 91 93 92 88 82 79 74 70 67 67
81 76 75 80 78 74 67 77 82 89 88 87 86 86 83 80 75 81 82 92 95 98 99 99 99 100 99 99 94 94 92 88 85 82 71 69 72 70
80 79 74 66 80 69 69 80 79 83 83 85 91 89 87 82 82 87 91 89 100 100 96 100 99 99 99 98 92 91 89 82 77 76 64 70 71 67
79 77 78 78 76 72 71 82 78 82 84 88 87 91 96 97 98 97 97 99 99 99 96 100 100 100 99 97 89 87 88 92 92 73 64 70 69 68
70 71 74 76 74 75 82 87 83 86 85 89 93 92 92 92 92 96 99 99 100 100 99 99 100 99 98 98 97 94 96 94 80 65 68 70 70 71
73 66 66 66 69 73 80 86 94 96 98 99 99 98 97 94 93 97 98 100 100 100 100 99 100 99 99 99 99 98 98 86 72 66 68 72 75 92
71 70 66 65 70 78 81 82 88 93 98 100 99 99 99 99 98 98 99 98 100 100 98 99 99 99 98 98 99 99 98 98 87 78 69 67 80 90
70 70 73 74 80 80 82 80 86 92 99 99 100 99 99 99 99 98 99 99 99 99 99 99 100 98 97 99 97 98 99 99 96 91 88 68 76 79
63 66 74 76 75 75 78 81 90 98 99 99 99 99 97 97 96 97 97 96 96 98 100 100 99 98 95 95 96 98 97 98 92 93 93 88 87 86
62 66 69 71 72 75 74 88 97 98 100 100 99 98 97 98 96 96 97 97 97 97 98 99 99 98 99 97 93 97 96 98 98 93 88 88 86 85
67 76 76 73 74 76 84 95 99 100 99 99 98 98 98 96 94 96 98 99 98 98 98 98 98 98 98 98 98 96 97 97 96 93 86 84 78 77
76 84 85 82 79 79 82 92 99 100 99 99 99 98 98 98 98 98 99 98 98 98 98 98 97 97 96 96 96 96 97 95 97 90 83 87 87 79
84 91 93 87 82 85 93 97 98 99 99 99 98 98 99 98 95 98 98 96 98 98 98 99 99 98 96 97 96 95 95 96 97 95 88 94 92 84
81 84 87 87 83 87 94 97 99 99 99 98 98 98 98 97 98 98 97 99 99 99 98 98 98 98 97 96 97 98 94 95 89 95 97 91 83 67
85 89 86 87 88 88 97 99 99 98 98 98 98 98 96 98 98 98 95 90 94 98 97 97 98 94 96 96 95 96 97 74 77 92 93 95 95 97
86 90 88 91 97 97 98 99 99 99 98 98 98 98 98 96 97 97 98 98 98 96 97 97 97 98 98 91 95 96 96 89 72 72 74 76 91 98
90 92 90 97 98 98 99 99 99 98 98 98 98 97 96 96 96 96 98 96 95 96 95 96 97 97 96 95 93 96 96 95 92 94 88 73 76 76

GFSNE_sfc_rhum_303.txt.gz
RH
75 73 77 83 80 83 86 92 96 87 81 70 78 72 75 77 71 74 73 74 76 78 78 76 74 78 77 80 78 76 73 77 80 72 70 68 63 58
66 70 74 78 81 85 87 85 88 96 86 75 76 74 74 68 69 70 70 79 78 77 77 80 79 77 78 83 82 80 78 77 83 72 70 67 65 64
72 77 78 76 81 83 87 90 88 89 92 81 74 71 76 75 73 73 77 76 73 74 77 81 83 81 82 88 86 83 84 84 83 82 75 68 66 64
80 82 82 67 84 85 90 91 90 87 84 85 72 71 70 71 74 79 74 70 78 75 77 82 78 81 80 87 89 90 91 87 86 88 78 74 69 65
85 86 86 86 90 90 91 92 70 63 72 80 78 72 75 76 81 77 77 78 74 77 81 83 82 85 83 93 93 94 93 94 94 91 84 74 74 69
85 86 86 87 88 89 81 76 69 75 76 83 78 77 77 75 78 83 81 77 78 67 75 77 82 89 93 91 91 93 93 95 95 92 90 84 78 72
86 83 82 84 84 84 79 80 76 81 87 86 79 74 77 80 82 81 85 82 79 80 82 91 98 96 98 91 93 92 97 94 93 90 86 86 81 71
87 83 84 82 79 74 73 75 67 79 86 90 87 89 85 85 85 89 89 94 96 94 98 98 98 99 99 97 91 92 94 91 90 86 83 82 79 73
86 86 80 68 80 83 79 76 78 75 70 84 92 92 91 93 97 94 91 95 98 99 96 100 99 99 99 98 94 93 90 91 91 87 86 82 73 70
86 85 84 83 84 74 66 74 79 80 78 79 86 93 97 95 95 95 98 99 99 99 98 99 100 99 98 98 92 91 90 87 88 85 79 73 70 70
78 81 82 76 68 65 72 70 78 75 74 77 86 88 94 94 92 98 99 99 100 99 99 99 100 99 99 98 96 90 91 92 90 85 76 71 70 72
77 71 66 66 68 69 74 70 79 81 84 85 97 98 98 97 95 97 99 100 100 100 100 99 100 99 99 100 98 98 97 87 78 76 70 78 79 90
69 70 68 67 68 69 68 72 79 82 86 95 100 99 99 100 99 99 99 100 100 100 99 99 100 99 99 99 99 99 98 98 91 82 76 76 80 90
71 69 69 66 67 70 70 73 76 79 87 88 98 98 99 99 98 99 99 100 100 100 99 99 100 98 97 99 98 98 99 99 96 90 90 75 79 80
64 67 67 66 68 67 69 70 73 82 90 92 98 99 99 99 99 99 99 98 98 99 100 100 99 98 96 96 99 98 98 98 98 95 94 91 90 87
66 69 66 64 64 62 65 68 70 84 96 95 98 99 99 99 99 99 98 98 98 98 98 100 99 98 99 94 91 98 97 98 98 97 93 92 86 84
64 75 81 78 83 76 80 80 77 89 97 98 99 98 98 98 98 99 98 99 98 98 98 98 99 98 98 97 98 97 98 98 97 94 88 87 83 80
72 87 86 84 82 81 83 83 83 88 92 98 99 99 98 99 98 99 99 98 98 98 98 98 98 97 97 97 96 97 98 97 98 93 82 90 89 84
82 82 85 86 87 85 86 86 90 92 98 99 99 99 99 99 99 98 98 98 99 99 98 98 99 98 97 97 97 96 95 97 97 97 88 92 94 88
83 83 82 84 88 89 89 92 91 97 99 99 99 99 99 99 98 99 98 98 99 98 98 98 98 98 98 96 97 98 96 96 96 96 97 93 83 65
82 85 85 86 91 90 94 96 97 98 99 99 99 99 99 98 99 98 97 93 94 98 98 98 98 95 97 97 96 97 98 96 91 94 95 94 95 94
78 80 85 86 91 93 97 98 98 99 99 99 99 99 99 98 98 98 98 97 97 98 98 97 98 98 98 94 96 96 97 95 74 71 70 73 92 98
81 82 89 89 91 92 98 98 99 99 99 98 98 98 98 98 98 97 96 98 97 97 97 97 97 96 96 95 94 96 96 96 95 94 89 76 74 70

GFSNE_sfc_rhum_306.txt.gz
RH
78 78 79 82 85 85 88 93 98 91 84 80 85 83 69 68 70 70 72 73 72 72 70 75 77 75 75 76 76 74 73 74 73 72 70 74 79 70
76 78 81 83 84 88 90 92 95 95 90 87 76 77 74 67 68 69 66 75 72 71 71 76 76 76 77 79 79 78 81 77 78 75 71 76 85 74
82 84 83 83 88 89 91 93 94 96 86 73 80 70 75 75 69 69 70 71 71 69 71 71 77 77 78 79 78 81 82 80 78 77 77 81 88 75
87 88 88 74 90 90 93 93 94 92 89 86 73 74 75 66 67 73 68 68 76 72 74 72 74 75 82 80 84 84 85 85 85 85 83 89 86 77
89 91 90 91 93 94 94 95 90 76 87 86 85 77 73 63 68 68 76 80 80 76 69 69 69 75 79 80 86 91 93 91 89 89 84 92 86 80
86 88 89 90 92 94 92 94 82 87 86 86 84 81 74 66 67 77 79 80 79 67 72 77 77 83 83 84 89 94 90 87 83 88 94 95 92 84
86 84 84 85 84 76 78 89 91 90 86 80 74 78 77 74 69 74 88 82 82 76 83 88 94 94 91 88 96 92 89 92 93 87 87 91 88 77
88 87 85 82 80 72 71 74 75 85 88 90 88 84 81 81 82 86 92 95 95 90 97 92 96 96 96 98 91 91 93 92 92 91 89 89 84 78
87 86 82 70 80 85 78 72 71 67 70 79 89 85 84 77 86 96 96 97 97 96 98 100 99 98 96 92 90 92 92 90 90 89 89 88 85 81
83 84 87 85 83 69 73 76 77 65 64 66 73 81 82 81 88 94 97 98 98 97 99 99 100 99 97 98 92 90 89 88 87 86 87 85 79 75
77 82 76 71 69 66 72 81 66 64 62 69 76 80 83 85 88 97 97 99 98 100 99 99 99 100 99 98 96 89 88 87 87 88 84 73 74 74
76 70 67 66 67 67 70 73 72 72 74 80 79 81 85 90 93 99 99 99 99 100 99 100 99 99 99 100 98 98 96 89 90 83 76 82 78 91
73 74 70 68 69 67 66 66 73 76 81 82 84 86 90 98 98 98 99 99 99 99 99 100 100 99 99 99 99 99 99 98 97 90 79 76 80 89
72 71 71 68 67 65 64 64 69 74 82 83 89 86 92 98 98 99 99 99 99 99 99 100 100 99 99 98 98 98 99 99 98 96 94 80 81 80
67 67 66 66 69 68 66 62 65 72 76 84 92 88 94 98 99 99 99 99 99 99 100 100 100 99 99 97 98 98 98 98 99 98 96 95 91 87
66 67 68 71 70 72 73 74 77 80 78 87 94 94 98 99 98 99 98 99 99 99 99 99 100 99 99 96 97 98 99 98 98 98 97 95 83 80
66 74 81 80 81 80 79 75 73 76 79 84 91 96 96 98 98 99 98 99 99 98 98 98 99 99 99 98 98 98 98 98 98 97 94 95 83 80
74 86 86 86 85 84 87 88 82 83 87 88 95 97 98 98 99 98 99 98 98 98 98 98 98 98 98 97 97 97 98 98 98 97 92 94 95 86
83 85 83 84 84 85 88 90 84 85 86 93 98 98 99 98 98 98 98 97 97 97 97 98 98 98 98 98 97 96 96 96 97 97 96 92 96 92
83 84 84 83 86 88 87 86 88 90 94 97 98 99 98 98 98 98 98 97 98 98 97 98 98 98 98 97 97 98 96 96 95 96 97 96 83 72
84 84 81 83 87 88 87 90 90 93 97 99 98 99 98 98 98 98 97 92 94 97 97 98 98 94 97 97 97 98 98 96 92 95 96 96 96 95
82 84 81 84 86 90 91 91 93 92 97 98 98 98 98 98 98 98 98 98 98 98 98 98 98 98 98 97 96 97 97 97 96 81 69 73 92 97
85 86 87 87 90 91 90 91 93 95 97 98 98 98 98 98 98 97 96 98 97 98 98 98 98 97 97 96 92 96 96 96 95 95 93 75 72 70

GFSNE_sfc_rhum_312.txt.gz
RH
86 85 87 89 90 91 92 94 93 90 89 81 82 70 61 65 67 69 71 73 63 64 63 64 66 67 68 69 69 73 74 72 70 68 67 64 64 66
86 86 89 90 92 93 94 94 96 96 96 90 75 69 69 67 67 71 71 76 66 61 62 66 63 65 64 64 68 68 70 73 73 71 72 71 66 68
88 87 89 90 94 94 94 95 96 98 97 79 86 73 80 80 75 75 72 69 64 64 67 66 67 70 65 65 68 69 73 75 74 75 76 74 70 71
89 85 90 76 90 92 95 95 97 96 94 86 82 84 85 82 80 86 71 64 70 64 65 66 67 69 72 76 77 77 80 80 78 82 82 79 78 74
87 88 90 90 91 94 95 96 96 89 97 88 81 75 77 79 82 80 77 72 59 62 64 66 71 72 77 84 81 82 91 86 87 85 84 83 82 78
84 84 87 89 93 94 90 92 85 96 90 87 87 83 80 76 78 79 73 70 67 58 67 70 71 72 80 85 86 88 92 90 88 85 87 87 92 83
81 79 82 81 74 74 74 89 92 95 92 89 85 80 78 78 76 70 75 74 70 71 80 80 78 80 80 90 90 90 90 89 86 89 87 87 91 89
82 83 85 79 78 69 69 69 72 82 87 88 84 82 72 67 66 73 81 82 90 78 85 86 81 89 92 96 97 94 92 90 87 88 87 88 89 89
82 86 81 68 80 84 78 72 74 70 70 78 86 75 71 68 74 82 77 86 86 83 91 94 88 97 96 93 96 92 92 92 88 87 86 86 87 85
82 84 84 83 81 73 81 86 85 85 82 75 76 67 69 71 74 74 80 88 85 89 82 98 95 98 98 97 96 93 90 90 87 86 87 85 81 77
78 79 79 80 72 69 78 83 82 81 67 65 62 65 66 61 61 75 89 95 94 86 94 100 100 99 100 98 97 95 91 88 89 89 90 87 80 76
78 76 70 70 70 68 74 84 86 84 82 82 81 81 75 77 72 76 81 98 98 97 99 99 95 99 98 100 99 97 96 91 92 93 88 80 85 88
76 74 73 71 68 67 67 80 82 72 78 86 87 85 76 73 79 86 93 99 98 97 86 100 98 95 99 99 99 99 99 98 98 95 84 81 82 83
73 75 79 67 68 68 72 73 71 75 84 86 85 81 84 83 83 85 94 98 98 98 96 99 99 99 99 99 98 99 99 99 98 98 97 95 82 77
75 70 67 66 70 76 74 73 74 84 80 84 85 80 84 84 86 86 95 96 97 96 99 99 99 99 99 99 98 99 99 98 99 98 95 92 91 90
70 76 63 66 72 73 76 78 79 77 82 86 84 80 76 83 83 89 97 96 98 97 98 99 99 99 99 99 98 98 98 98 98 97 94 88 79 79
69 71 76 81 82 83 85 84 83 84 83 81 85 86 80 84 89 96 98 98 99 97 96 98 98 99 99 98 98 98 99 98 98 97 91 91 87 89
70 78 80 82 82 83 87 88 84 83 84 86 89 88 92 96 96 96 98 99 98 97 98 98 98 98 98 97 97 98 98 98 98 97 92 94 98 91
75 78 82 82 83 84 87 90 90 85 86 89 91 94 95 95 96 97 98 98 98 97 97 98 98 98 98 98 98 96 97 98 98 97 97 96 98 92
80 86 88 86 86 88 88 90 90 88 88 89 93 92 95 97 97 98 98 98 98 97 98 98 98 98 98 97 98 98 96 96 97 97 98 98 94 80
90 92 89 89 90 90 90 90 92 92 90 91 92 93 94 97 96 98 98 90 93 98 98 98 98 89 98 98 98 98 98 97 93 94 97 97 98 97
92 92 88 90 92 93 94 93 93 91 91 91 92 92 92 97 97 98 98 98 98 98 98 98 97 98 98 98 98 97 97 97 96 92 80 80 94 98
95 92 93 93 94 95 95 94 93 92 91 93 93 92 94 97 97 98 98 97 97 98 98 98 98 98 98 98 94 97 96 96 96 95 96 72 68 67

GFSNE_sfc_rhum_318.txt.gz
RH
47 46 45 48 48 47 47 46 44 34 28 29 33 32 38 38 45 44 42 57 62 63 64 65 65 65 63 64 66 68 72 78 79 80 78 70 72 73
46 46 46 48 50 51 53 50 50 48 44 32 35 38 38 36 42 43 44 60 55 58 62 64 66 65 64 68 72 73 77 75 77 82 82 74 76 78
51 50 53 47 47 47 53 54 55 60 58 41 37 37 42 45 44 45 46 44 43 55 59 63 62 64 67 71 72 77 78 85 88 87 86 82 81 83
60 55 51 41 46 49 50 52 53 52 60 57 47 45 47 46 47 49 44 38 44 48 60 60 61 64 69 69 70 72 84 91 90 82 91 80 80 82
51 43 45 41 44 47 50 51 49 45 53 60 55 47 46 46 52 48 46 48 40 55 53 56 61 68 69 71 70 77 90 91 89 84 86 86 91 84
54 46 42 47 52 50 46 48 48 57 54 57 55 53 50 48 50 54 56 52 54 43 49 56 63 69 69 68 73 83 90 88 83 84 87 88 91 85
54 48 57 64 64 58 46 54 58 60 60 60 58 55 53 56 59 56 66 61 57 50 56 60 63 64 65 68 74 87 90 85 82 86 87 90 91 92
51 51 54 60 55 62 65 66 66 64 64 61 58 60 57 60 56 66 72 75 80 58 67 72 66 72 68 71 78 92 91 87 88 87 84 87 89 90
52 51 45 45 58 56 59 64 61 65 68 67 67 61 61 58 62 67 70 74 78 73 70 91 75 79 69 65 85 94 88 87 87 83 84 80 76 76
54 48 49 50 62 62 59 58 56 54 57 58 62 61 61 64 68 67 69 71 75 71 65 91 87 88 76 74 89 96 91 87 84 86 85 89 74 67
52 52 52 54 64 64 60 63 58 58 57 64 69 72 73 69 69 71 79 86 89 84 76 93 86 91 90 86 92 97 97 83 85 88 91 77 70 68
51 51 67 63 61 62 60 62 66 68 65 68 71 67 64 63 69 74 83 95 91 87 78 98 87 88 90 94 85 97 96 94 90 89 81 71 66 59
50 53 56 60 59 64 68 62 69 67 69 74 75 68 65 68 71 74 81 92 95 93 76 98 93 89 97 93 82 100 98 98 97 97 96 79 70 61
55 57 54 57 61 67 63 71 71 69 67 69 69 66 70 75 76 82 89 92 91 99 91 98 98 96 96 93 94 98 100 98 98 93 80 70 65 66
56 56 54 56 57 54 64 69 65 66 69 72 71 72 73 76 81 82 83 87 84 88 98 100 98 98 98 95 96 95 100 98 96 84 71 68 67 69
54 50 56 56 56 54 52 58 62 68 73 73 73 71 70 74 78 79 86 80 84 80 95 100 100 100 95 100 100 98 99 99 88 83 74 72 69 69
50 48 52 55 57 56 58 60 64 70 73 72 76 77 75 77 79 79 87 83 87 84 82 84 99 99 100 100 99 96 94 91 86 85 76 76 66 61
53 56 58 60 61 61 62 63 64 69 73 79 81 82 85 87 86 84 81 83 86 82 83 84 88 93 99 99 90 95 94 92 88 86 75 79 73 68
55 60 62 64 65 67 69 71 73 69 79 82 84 87 88 89 88 88 88 83 84 81 84 86 90 93 92 92 88 93 97 92 92 88 80 74 78 73
60 64 68 68 69 71 73 74 75 76 78 82 86 88 89 90 89 90 91 93 92 86 87 86 90 92 95 95 94 89 97 98 94 88 87 78 90 77
70 73 71 72 74 74 76 81 83 82 81 88 88 88 88 90 91 89 92 81 81 85 88 86 88 83 93 94 95 90 94 96 93 96 92 88 82 76
69 72 71 75 77 79 82 82 83 80 80 83 86 88 88 90 93 92 91 93 85 86 88 87 87 90 93 92 91 90 90 94 96 94 90 82 89 90
73 74 76 78 80 83 85 85 84 83 80 84 88 89 90 94 87 89 92 85 88 88 86 88 86 87 90 90 92 92 94 94 91 89 88 68 67 67